Time,TemperatureF,DewpointF,PressureIn,WindDirection,WindDirectionDegrees,WindSpeedMPH,WindSpeedGustMPH,Humidity,HourlyPrecipIn,Conditions,Clouds,dailyrainin,SoftwareType,DateUTC
2013-06-03 00:00:00,71.0,64.5,29.75,NW,304,0.0,2.0,80,0.00,,,0.00,Wunderground v.1.15,2013-06-03 04:00:00,
2013-06-03 00:05:00,70.9,64.4,29.75,West,269,1.0,2.0,80,0.00,,,0.00,Wunderground v.1.15,2013-06-03 04:05:00,
2013-06-03 00:10:00,70.8,64.3,29.75,South,174,1.0,1.0,80,0.00,,,0.00,Wunderground v.1.15,2013-06-03 04:10:00,
2013-06-03 00:15:00,70.8,64.3,29.75,West,267,1.0,1.0,80,0.00,,,0.00,Wunderground v.1.15,2013-06-03 04:15:00,
2013-06-03 00:20:00,70.7,64.6,29.75,WSW,254,1.0,1.0,81,0.00,,,0.00,Wunderground v.1.15,2013-06-03 04:20:00,
2013-06-03 00:25:00,70.6,64.5,29.75,NNE,32,0.0,1.0,81,0.00,,,0.00,Wunderground v.1.15,2013-06-03 04:25:00,
2013-06-03 00:30:00,70.5,64.4,29.74,NNE,32,0.0,0.0,81,0.00,,,0.00,Wunderground v.1.15,2013-06-03 04:30:00,
2013-06-03 00:40:00,70.3,64.2,29.75,NNE,31,0.0,0.0,81,0.00,,,0.00,Wunderground v.1.15,2013-06-03 04:40:00,
2013-06-03 00:50:00,70.1,64.3,29.75,NNE,17,0.0,0.0,82,0.00,,,0.00,Wunderground v.1.15,2013-06-03 04:50:00,
2013-06-03 00:55:00,70.0,64.2,29.75,NW,306,0.0,0.0,82,0.00,,,0.00,Wunderground v.1.15,2013-06-03 04:55:00,
2013-06-03 01:05:00,69.9,64.2,29.75,NW,306,0.0,0.0,82,0.00,,,0.00,Wunderground v.1.15,2013-06-03 05:05:00,
2013-06-03 01:10:00,69.7,64.3,29.75,NW,306,0.0,1.0,83,0.00,,,0.00,Wunderground v.1.15,2013-06-03 05:10:00,
2013-06-03 01:20:00,69.8,64.4,29.75,NW,306,0.0,0.0,83,0.00,,,0.00,Wunderground v.1.15,2013-06-03 05:20:00,
2013-06-03 01:30:00,69.8,64.4,29.76,WNW,296,1.0,1.0,83,0.00,,,0.00,Wunderground v.1.15,2013-06-03 05:30:00,
2013-06-03 01:35:00,69.8,64.4,29.76,WNW,296,1.0,1.0,83,0.00,,,0.00,Wunderground v.1.15,2013-06-03 05:35:00,
2013-06-03 01:45:00,69.6,64.2,29.76,WNW,296,0.0,0.0,83,0.00,,,0.00,Wunderground v.1.15,2013-06-03 05:45:00,
2013-06-03 01:50:00,69.6,64.2,29.76,WNW,296,0.0,0.0,83,0.00,,,0.00,Wunderground v.1.15,2013-06-03 05:50:00,
2013-06-03 01:55:00,69.5,64.1,29.76,WNW,296,0.0,1.0,83,0.00,,,0.00,Wunderground v.1.15,2013-06-03 05:55:00,
2013-06-03 02:05:00,69.4,64.4,29.76,WNW,297,0.0,0.0,84,0.00,,,0.00,Wunderground v.1.15,2013-06-03 06:05:00,
2013-06-03 02:10:00,69.4,64.4,29.76,WNW,297,0.0,0.0,84,0.00,,,0.00,Wunderground v.1.15,2013-06-03 06:10:00,
2013-06-03 02:20:00,69.3,64.3,29.75,WNW,297,0.0,0.0,84,0.00,,,0.00,Wunderground v.1.15,2013-06-03 06:20:00,
2013-06-03 02:25:00,69.3,64.3,29.75,WNW,297,0.0,0.0,84,0.00,,,0.00,Wunderground v.1.15,2013-06-03 06:25:00,
2013-06-03 02:35:00,69.2,64.2,29.75,SW,220,0.0,2.0,84,0.00,,,0.00,Wunderground v.1.15,2013-06-03 06:35:00,
2013-06-03 02:40:00,69.2,64.2,29.75,SW,226,0.0,0.0,84,0.00,,,0.00,Wunderground v.1.15,2013-06-03 06:40:00,
2013-06-03 02:50:00,69.2,64.5,29.74,NW,306,0.0,0.0,85,0.00,,,0.00,Wunderground v.1.15,2013-06-03 06:50:00,
2013-06-03 02:55:00,69.2,64.2,29.74,SSW,211,0.0,0.0,84,0.00,,,0.00,Wunderground v.1.15,2013-06-03 06:55:00,
2013-06-03 03:05:00,69.1,64.4,29.73,WNW,291,0.0,2.0,85,0.00,,,0.00,Wunderground v.1.15,2013-06-03 07:05:00,
2013-06-03 03:15:00,69.1,64.4,29.73,West,280,0.0,0.0,85,0.00,,,0.00,Wunderground v.1.15,2013-06-03 07:15:00,
2013-06-03 03:25:00,69.0,64.3,29.73,West,280,0.0,0.0,85,0.00,,,0.00,Wunderground v.1.15,2013-06-03 07:25:00,
2013-06-03 03:35:00,69.0,64.3,29.74,West,280,0.0,0.0,85,0.00,,,0.00,Wunderground v.1.15,2013-06-03 07:35:00,
2013-06-03 03:40:00,69.0,64.3,29.74,West,280,0.0,0.0,85,0.00,,,0.00,Wunderground v.1.15,2013-06-03 07:40:00,
2013-06-03 03:50:00,69.0,64.3,29.73,SW,215,0.0,0.0,85,0.00,,,0.00,Wunderground v.1.15,2013-06-03 07:50:00,
2013-06-03 03:55:00,68.9,64.2,29.73,WSW,253,0.0,1.0,85,0.00,,,0.00,Wunderground v.1.15,2013-06-03 07:55:00,
2013-06-03 04:05:00,68.8,64.4,29.73,West,281,0.0,0.0,86,0.00,,,0.00,Wunderground v.1.15,2013-06-03 08:05:00,
2013-06-03 04:15:00,68.8,64.4,29.73,West,281,0.0,0.0,86,0.00,,,0.00,Wunderground v.1.15,2013-06-03 08:15:00,
2013-06-03 04:20:00,68.7,64.3,29.74,SSW,211,0.0,0.0,86,0.00,,,0.00,Wunderground v.1.15,2013-06-03 08:20:00,
2013-06-03 04:30:00,68.7,64.3,29.74,SSW,199,0.0,0.0,86,0.00,,,0.00,Wunderground v.1.15,2013-06-03 08:30:00,
2013-06-03 04:40:00,68.6,64.2,29.75,NW,309,0.0,1.0,86,0.00,,,0.00,Wunderground v.1.15,2013-06-03 08:40:00,
2013-06-03 04:50:00,68.5,64.1,29.75,SSW,211,1.0,1.0,86,0.00,,,0.00,Wunderground v.1.15,2013-06-03 08:50:00,
2013-06-03 04:55:00,68.6,64.2,29.76,NW,306,1.0,1.0,86,0.00,,,0.00,Wunderground v.1.15,2013-06-03 08:55:00,
2013-06-03 05:05:00,68.6,64.2,29.75,WSW,238,1.0,1.0,86,0.00,,,0.00,Wunderground v.1.15,2013-06-03 09:05:00,
2013-06-03 05:15:00,68.6,64.6,29.76,SSW,211,1.0,1.0,87,0.00,,,0.00,Wunderground v.1.15,2013-06-03 09:15:00,
2013-06-03 05:20:00,68.6,64.6,29.76,SSW,201,1.0,1.0,87,0.00,,,0.00,Wunderground v.1.15,2013-06-03 09:20:00,
2013-06-03 05:25:00,68.5,64.1,29.76,South,189,1.0,3.0,86,0.00,,,0.00,Wunderground v.1.15,2013-06-03 09:25:00,
2013-06-03 05:35:00,68.3,63.9,29.76,NW,304,1.0,1.0,86,0.00,,,0.00,Wunderground v.1.15,2013-06-03 09:35:00,
2013-06-03 05:40:00,68.2,63.9,29.77,SSW,194,0.0,0.0,86,0.00,,,0.00,Wunderground v.1.15,2013-06-03 09:40:00,
2013-06-03 05:50:00,68.0,63.7,29.77,SW,227,1.0,2.0,86,0.00,,,0.00,Wunderground v.1.15,2013-06-03 09:50:00,
2013-06-03 05:55:00,68.0,64.0,29.77,WSW,242,1.0,2.0,87,0.00,,,0.00,Wunderground v.1.15,2013-06-03 09:55:00,
2013-06-03 06:05:00,67.8,63.8,29.78,West,266,1.0,1.0,87,0.00,,,0.00,Wunderground v.1.15,2013-06-03 10:05:00,
2013-06-03 06:10:00,67.8,63.8,29.78,WNW,301,0.0,1.0,87,0.00,,,0.00,Wunderground v.1.15,2013-06-03 10:10:00,
2013-06-03 06:20:00,67.9,64.2,29.78,WSW,239,1.0,1.0,88,0.00,,,0.01,Wunderground v.1.15,2013-06-03 10:20:00,
2013-06-03 06:25:00,67.9,64.5,29.79,WNW,290,1.0,1.0,89,0.00,,,0.01,Wunderground v.1.15,2013-06-03 10:25:00,
2013-06-03 06:35:00,67.9,64.5,29.79,WNW,290,1.0,1.0,89,0.00,,,0.01,Wunderground v.1.15,2013-06-03 10:35:00,
2013-06-03 06:40:00,67.8,64.4,29.79,WNW,291,0.0,0.0,89,0.00,,,0.01,Wunderground v.1.15,2013-06-03 10:40:00,
2013-06-03 06:50:00,67.9,64.9,29.80,NW,317,0.0,0.0,90,0.00,,,0.01,Wunderground v.1.15,2013-06-03 10:50:00,
2013-06-03 06:55:00,67.9,64.9,29.80,NW,317,0.0,0.0,90,0.00,,,0.01,Wunderground v.1.15,2013-06-03 10:55:00,
2013-06-03 07:05:00,67.8,65.1,29.79,NW,309,1.0,1.0,91,0.00,,,0.01,Wunderground v.1.15,2013-06-03 11:05:00,
2013-06-03 07:10:00,67.9,65.2,29.79,NW,309,0.0,0.0,91,0.00,,,0.01,Wunderground v.1.15,2013-06-03 11:10:00,
2013-06-03 07:20:00,67.9,65.2,29.79,NW,309,1.0,1.0,91,0.00,,,0.01,Wunderground v.1.15,2013-06-03 11:20:00,
2013-06-03 07:25:00,67.8,65.1,29.79,NW,309,1.0,1.0,91,0.00,,,0.02,Wunderground v.1.15,2013-06-03 11:25:00,
2013-06-03 07:35:00,67.6,64.9,29.80,NNW,327,1.0,4.0,91,0.00,,,0.02,Wunderground v.1.15,2013-06-03 11:35:00,
2013-06-03 07:40:00,67.5,64.8,29.80,NW,317,1.0,1.0,91,0.15,,,0.04,Wunderground v.1.15,2013-06-03 11:40:00,
2013-06-03 07:50:00,67.3,64.9,29.80,WNW,286,1.0,1.0,92,0.18,,,0.07,Wunderground v.1.15,2013-06-03 11:50:00,
2013-06-03 08:00:00,66.3,63.6,29.79,NW,319,2.0,2.0,91,0.08,,,0.08,Wunderground v.1.15,2013-06-03 12:00:00,
2013-06-03 08:05:00,66.3,63.9,29.79,NW,319,1.0,2.0,92,0.14,,,0.10,Wunderground v.1.15,2013-06-03 12:05:00,
2013-06-03 08:15:00,65.7,63.3,29.79,NW,319,0.0,0.0,92,0.06,,,0.10,Wunderground v.1.15,2013-06-03 12:15:00,
2013-06-03 08:25:00,65.6,63.2,29.79,NW,319,0.0,0.0,92,0.22,,,0.12,Wunderground v.1.15,2013-06-03 12:25:00,
2013-06-03 08:35:00,65.8,63.7,29.80,NW,319,0.0,0.0,93,0.06,,,0.13,Wunderground v.1.15,2013-06-03 12:35:00,
2013-06-03 08:40:00,65.8,63.7,29.80,NW,319,0.0,0.0,93,0.05,,,0.14,Wunderground v.1.15,2013-06-03 12:40:00,
2013-06-03 08:50:00,65.8,63.7,29.78,East,79,1.0,1.0,93,0.29,,,0.16,Wunderground v.1.15,2013-06-03 12:50:00,
2013-06-03 08:55:00,65.9,63.8,29.79,East,79,1.0,1.0,93,0.08,,,0.16,Wunderground v.1.15,2013-06-03 12:55:00,
2013-06-03 09:05:00,66.3,64.2,29.79,East,79,0.0,0.0,93,0.04,,,0.16,Wunderground v.1.15,2013-06-03 13:05:00,
2013-06-03 09:10:00,66.3,64.2,29.80,East,80,0.0,0.0,93,0.00,,,0.17,Wunderground v.1.15,2013-06-03 13:10:00,
2013-06-03 09:20:00,66.1,64.0,29.79,East,80,0.0,0.0,93,0.00,,,0.17,Wunderground v.1.15,2013-06-03 13:20:00,
2013-06-03 09:25:00,65.8,63.7,29.80,East,80,0.0,0.0,93,0.00,,,0.17,Wunderground v.1.15,2013-06-03 13:25:00,
2013-06-03 09:35:00,65.7,63.6,29.80,East,80,0.0,0.0,93,0.00,,,0.17,Wunderground v.1.15,2013-06-03 13:35:00,
2013-06-03 09:40:00,66.1,64.0,29.80,East,80,0.0,0.0,93,0.00,,,0.17,Wunderground v.1.15,2013-06-03 13:40:00,
2013-06-03 09:50:00,66.1,64.0,29.79,East,80,0.0,0.0,93,0.00,,,0.18,Wunderground v.1.15,2013-06-03 13:50:00,
2013-06-03 09:55:00,66.2,63.8,29.79,East,80,0.0,0.0,92,0.00,,,0.18,Wunderground v.1.15,2013-06-03 13:55:00,
2013-06-03 10:05:00,66.7,64.6,29.80,East,80,0.0,1.0,93,0.00,,,0.18,Wunderground v.1.15,2013-06-03 14:05:00,
2013-06-03 10:15:00,66.2,63.8,29.80,North,360,0.0,1.0,92,0.13,,,0.20,Wunderground v.1.15,2013-06-03 14:15:00,
2013-06-03 10:20:00,66.1,63.7,29.80,North,360,1.0,1.0,92,0.08,,,0.20,Wunderground v.1.15,2013-06-03 14:20:00,
2013-06-03 10:30:00,66.2,63.8,29.79,North,355,1.0,1.0,92,0.06,,,0.21,Wunderground v.1.15,2013-06-03 14:30:00,
2013-06-03 10:35:00,66.1,63.7,29.79,NNW,348,1.0,1.0,92,0.06,,,0.22,Wunderground v.1.15,2013-06-03 14:35:00,
2013-06-03 10:40:00,66.1,63.7,29.79,NNW,348,0.0,2.0,92,0.06,,,0.22,Wunderground v.1.15,2013-06-03 14:40:00,
2013-06-03 10:50:00,65.9,63.5,29.80,NNW,348,1.0,1.0,92,0.00,,,0.22,Wunderground v.1.15,2013-06-03 14:50:00,
2013-06-03 10:55:00,66.3,63.9,29.80,NNW,348,0.0,1.0,92,0.00,,,0.22,Wunderground v.1.15,2013-06-03 14:55:00,
2013-06-03 11:05:00,66.2,63.5,29.79,NNW,348,0.0,1.0,91,0.00,,,0.23,Wunderground v.1.15,2013-06-03 15:05:00,
2013-06-03 11:15:00,65.9,63.2,29.79,NNW,348,0.0,0.0,91,0.00,,,0.24,Wunderground v.1.15,2013-06-03 15:15:00,
2013-06-03 11:20:00,66.1,63.7,29.79,NNW,348,0.0,0.0,92,0.10,,,0.25,Wunderground v.1.15,2013-06-03 15:20:00,
2013-06-03 11:30:00,66.0,63.6,29.79,NNW,348,0.0,0.0,92,0.06,,,0.25,Wunderground v.1.15,2013-06-03 15:30:00,
2013-06-03 11:35:00,66.2,63.8,29.79,NNW,348,0.0,0.0,92,0.05,,,0.26,Wunderground v.1.15,2013-06-03 15:35:00,
2013-06-03 11:40:00,66.1,63.7,29.79,NNW,348,0.0,0.0,92,0.09,,,0.27,Wunderground v.1.15,2013-06-03 15:40:00,
2013-06-03 11:50:00,65.7,63.3,29.78,NNW,348,0.0,0.0,92,0.16,,,0.29,Wunderground v.1.15,2013-06-03 15:50:00,
2013-06-03 12:00:00,65.4,63.0,29.77,NNW,348,0.0,0.0,92,0.12,,,0.31,Wunderground v.1.15,2013-06-03 16:00:00,
2013-06-03 12:05:00,65.5,63.1,29.77,NNW,348,0.0,0.0,92,0.13,,,0.32,Wunderground v.1.15,2013-06-03 16:05:00,
2013-06-03 12:10:00,65.6,63.2,29.78,NNW,348,0.0,0.0,92,0.14,,,0.33,Wunderground v.1.15,2013-06-03 16:10:00,
2013-06-03 12:20:00,66.2,64.1,29.77,NNW,348,0.0,0.0,93,0.06,,,0.34,Wunderground v.1.15,2013-06-03 16:20:00,
2013-06-03 12:30:00,67.1,64.7,29.78,NNW,347,0.0,0.0,92,0.00,,,0.34,Wunderground v.1.15,2013-06-03 16:30:00,
2013-06-03 12:35:00,67.3,64.9,29.78,NNW,346,0.0,0.0,92,0.00,,,0.34,Wunderground v.1.15,2013-06-03 16:35:00,
2013-06-03 12:45:00,67.8,65.1,29.79,NNW,330,0.0,1.0,91,0.00,,,0.34,Wunderground v.1.15,2013-06-03 16:45:00,
2013-06-03 12:50:00,67.7,65.0,29.79,SW,236,1.0,1.0,91,0.00,,,0.34,Wunderground v.1.15,2013-06-03 16:50:00,
2013-06-03 12:55:00,68.5,66.1,29.78,WNW,292,0.0,2.0,92,0.00,,,0.34,Wunderground v.1.15,2013-06-03 16:55:00,
2013-06-03 13:00:00,69.0,66.3,29.78,WNW,294,0.0,0.0,91,0.00,,,0.34,Wunderground v.1.15,2013-06-03 17:00:00,
2013-06-03 13:10:00,68.7,65.6,29.78,SSW,192,0.0,0.0,90,0.00,,,0.34,Wunderground v.1.15,2013-06-03 17:10:00,
2013-06-03 13:20:00,68.8,65.4,29.77,SSW,196,0.0,0.0,89,0.00,,,0.34,Wunderground v.1.15,2013-06-03 17:20:00,
2013-06-03 13:25:00,69.2,66.1,29.77,SSW,196,0.0,0.0,90,0.00,,,0.34,Wunderground v.1.15,2013-06-03 17:25:00,
2013-06-03 13:35:00,69.8,66.1,29.77,SSW,196,0.0,1.0,88,0.00,,,0.34,Wunderground v.1.15,2013-06-03 17:35:00,
2013-06-03 13:40:00,70.0,66.0,29.77,SSW,196,0.0,0.0,87,0.00,,,0.34,Wunderground v.1.15,2013-06-03 17:40:00,
2013-06-03 13:50:00,70.8,66.1,29.77,SSW,207,1.0,1.0,85,0.00,,,0.34,Wunderground v.1.15,2013-06-03 17:50:00,
2013-06-03 13:55:00,70.9,66.5,29.77,South,180,1.0,1.0,86,0.00,,,0.34,Wunderground v.1.15,2013-06-03 17:55:00,
2013-06-03 14:05:00,71.5,66.8,29.77,South,185,0.0,1.0,85,0.00,,,0.34,Wunderground v.1.15,2013-06-03 18:05:00,
2013-06-03 14:15:00,72.4,66.6,29.76,WNW,299,1.0,4.0,82,0.00,,,0.34,Wunderground v.1.15,2013-06-03 18:15:00,
2013-06-03 14:25:00,72.8,66.6,29.76,SE,134,1.0,5.0,81,0.00,,,0.34,Wunderground v.1.15,2013-06-03 18:25:00,
2013-06-03 14:35:00,73.1,67.3,29.75,SW,222,1.0,1.0,82,0.00,,,0.34,Wunderground v.1.15,2013-06-03 18:35:00,
2013-06-03 14:40:00,73.8,67.6,29.75,SSW,207,1.0,1.0,81,0.00,,,0.34,Wunderground v.1.15,2013-06-03 18:40:00,
2013-06-03 14:50:00,73.4,66.5,29.75,WSW,253,2.0,2.0,79,0.00,,,0.34,Wunderground v.1.15,2013-06-03 18:50:00,
2013-06-03 15:00:00,74.2,66.9,29.75,SSW,200,2.0,3.0,78,0.00,,,0.34,Wunderground v.1.15,2013-06-03 19:00:00,
2013-06-03 15:10:00,74.1,66.4,29.75,WSW,238,1.0,1.0,77,0.00,,,0.34,Wunderground v.1.15,2013-06-03 19:10:00,
2013-06-03 15:25:00,74.6,67.3,29.75,SW,234,1.0,1.0,78,0.00,,,0.34,Wunderground v.1.15,2013-06-03 19:25:00,
2013-06-03 15:35:00,74.4,66.7,29.75,WSW,240,1.0,2.0,77,0.00,,,0.34,Wunderground v.1.15,2013-06-03 19:35:00,
2013-06-03 15:45:00,74.8,66.7,29.75,SSW,210,1.0,2.0,76,0.00,,,0.34,Wunderground v.1.15,2013-06-03 19:45:00,
2013-06-03 15:50:00,75.2,67.1,29.75,SSW,202,1.0,2.0,76,0.00,,,0.34,Wunderground v.1.15,2013-06-03 19:50:00,
2013-06-03 15:55:00,75.6,67.1,29.75,WNW,296,1.0,1.0,75,0.00,,,0.34,Wunderground v.1.15,2013-06-03 19:55:00,
2013-06-03 16:05:00,75.8,66.9,29.74,WNW,286,1.0,1.0,74,0.00,,,0.34,Wunderground v.1.15,2013-06-03 20:05:00,
2013-06-03 16:15:00,76.4,67.5,29.74,West,266,2.0,3.0,74,0.00,,,0.34,Wunderground v.1.15,2013-06-03 20:15:00,
2013-06-03 16:20:00,76.9,67.6,29.73,WNW,302,2.0,2.0,73,0.00,,,0.34,Wunderground v.1.15,2013-06-03 20:20:00,
2013-06-03 16:25:00,77.0,67.7,29.73,WNW,295,1.0,2.0,73,0.00,,,0.34,Wunderground v.1.15,2013-06-03 20:25:00,
2013-06-03 16:35:00,77.0,67.3,29.73,West,277,1.0,2.0,72,0.00,,,0.34,Wunderground v.1.15,2013-06-03 20:35:00,
2013-06-03 16:40:00,76.5,66.8,29.73,SW,234,1.0,1.0,72,0.00,,,0.34,Wunderground v.1.15,2013-06-03 20:40:00,
2013-06-03 16:50:00,76.2,66.9,29.73,SSE,158,1.0,1.0,73,0.00,,,0.34,Wunderground v.1.15,2013-06-03 20:50:00,
2013-06-03 16:55:00,76.5,67.2,29.73,SW,219,1.0,1.0,73,0.00,,,0.34,Wunderground v.1.15,2013-06-03 20:55:00,
2013-06-03 17:05:00,76.3,67.0,29.73,SW,225,2.0,2.0,73,0.00,,,0.34,Wunderground v.1.15,2013-06-03 21:05:00,
2013-06-03 17:15:00,77.0,67.7,29.73,SW,224,1.0,3.0,73,0.00,,,0.34,Wunderground v.1.15,2013-06-03 21:15:00,
2013-06-03 17:20:00,76.7,67.0,29.73,SW,217,1.0,1.0,72,0.00,,,0.34,Wunderground v.1.15,2013-06-03 21:20:00,
2013-06-03 17:30:00,76.3,66.6,29.72,West,268,1.0,2.0,72,0.00,,,0.34,Wunderground v.1.15,2013-06-03 21:30:00,
2013-06-03 17:35:00,76.0,66.7,29.72,WNW,294,1.0,2.0,73,0.00,,,0.34,Wunderground v.1.15,2013-06-03 21:35:00,
2013-06-03 17:40:00,75.8,66.5,29.72,SW,218,1.0,1.0,73,0.00,,,0.34,Wunderground v.1.15,2013-06-03 21:40:00,
2013-06-03 17:50:00,76.0,66.7,29.72,West,269,0.0,1.0,73,0.00,,,0.34,Wunderground v.1.15,2013-06-03 21:50:00,
2013-06-03 18:00:00,77.1,67.4,29.72,SSW,211,0.0,0.0,72,0.00,,,0.34,Wunderground v.1.15,2013-06-03 22:00:00,
2013-06-03 18:05:00,77.6,67.0,29.71,SSW,207,1.0,1.0,70,0.00,,,0.34,Wunderground v.1.15,2013-06-03 22:05:00,
2013-06-03 18:15:00,77.4,66.4,29.72,SSW,202,1.0,1.0,69,0.00,,,0.34,Wunderground v.1.15,2013-06-03 22:15:00,
2013-06-03 18:20:00,77.6,67.0,29.72,WNW,294,1.0,2.0,70,0.00,,,0.34,Wunderground v.1.15,2013-06-03 22:20:00,
2013-06-03 18:30:00,77.7,66.7,29.71,NW,310,1.0,1.0,69,0.00,,,0.34,Wunderground v.1.15,2013-06-03 22:30:00,
2013-06-03 18:35:00,77.6,67.0,29.72,NW,310,0.0,1.0,70,0.00,,,0.34,Wunderground v.1.15,2013-06-03 22:35:00,
2013-06-03 18:45:00,77.9,66.5,29.72,WNW,299,0.0,3.0,68,0.00,,,0.34,Wunderground v.1.15,2013-06-03 22:45:00,
2013-06-03 18:50:00,77.9,66.5,29.72,NW,304,0.0,1.0,68,0.00,,,0.34,Wunderground v.1.15,2013-06-03 22:50:00,
2013-06-03 18:55:00,77.6,65.8,29.72,WNW,288,1.0,1.0,67,0.00,,,0.34,Wunderground v.1.15,2013-06-03 22:55:00,
2013-06-03 19:05:00,77.1,65.7,29.72,WNW,294,1.0,1.0,68,0.00,,,0.34,Wunderground v.1.15,2013-06-03 23:05:00,
2013-06-03 19:15:00,77.4,66.8,29.72,WNW,283,0.0,2.0,70,0.00,,,0.34,Wunderground v.1.15,2013-06-03 23:15:00,
2013-06-03 19:20:00,76.7,67.8,29.72,SSW,209,1.0,2.0,74,0.00,,,0.34,Wunderground v.1.15,2013-06-03 23:20:00,
2013-06-03 19:30:00,75.8,68.1,29.72,SW,233,1.0,1.0,77,0.00,,,0.34,Wunderground v.1.15,2013-06-03 23:30:00,
2013-06-03 19:35:00,75.5,68.2,29.72,West,264,1.0,1.0,78,0.00,,,0.34,Wunderground v.1.15,2013-06-03 23:35:00,
2013-06-03 19:45:00,75.4,68.4,29.72,SSW,205,1.0,2.0,79,0.00,,,0.34,Wunderground v.1.15,2013-06-03 23:45:00,
2013-06-03 19:50:00,75.2,68.2,29.72,SSW,208,0.0,1.0,79,0.00,,,0.34,Wunderground v.1.15,2013-06-03 23:50:00,
2013-06-03 19:55:00,75.1,68.1,29.73,SSW,212,0.0,1.0,79,0.00,,,0.34,Wunderground v.1.15,2013-06-03 23:55:00,
2013-06-03 20:05:00,74.9,67.2,29.72,WNW,300,1.0,2.0,77,0.00,,,0.34,Wunderground v.1.15,2013-06-04 00:05:00,
2013-06-03 20:15:00,74.6,62.9,29.73,NNW,328,1.0,1.0,67,0.00,,,0.34,Wunderground v.1.15,2013-06-04 00:15:00,
2013-06-03 20:20:00,74.5,62.0,29.73,NNW,335,1.0,1.0,65,0.00,,,0.34,Wunderground v.1.15,2013-06-04 00:20:00,
2013-06-03 20:30:00,74.0,60.6,29.73,West,280,1.0,3.0,63,0.00,,,0.34,Wunderground v.1.15,2013-06-04 00:30:00,
2013-06-03 20:35:00,73.8,60.9,29.73,NW,307,2.0,3.0,64,0.00,,,0.34,Wunderground v.1.15,2013-06-04 00:35:00,
2013-06-03 20:45:00,73.3,60.4,29.73,West,279,2.0,3.0,64,0.00,,,0.34,Wunderground v.1.15,2013-06-04 00:45:00,
2013-06-03 20:55:00,72.9,60.4,29.74,WNW,298,2.0,2.0,65,0.00,,,0.34,Wunderground v.1.15,2013-06-04 00:55:00,
2013-06-03 21:05:00,72.6,60.2,29.74,WNW,283,2.0,4.0,65,0.00,,,0.34,Wunderground v.1.15,2013-06-04 01:05:00,
2013-06-03 21:10:00,72.4,60.0,29.74,NW,325,2.0,2.0,65,0.00,,,0.34,Wunderground v.1.15,2013-06-04 01:10:00,
2013-06-03 21:20:00,71.8,59.0,29.75,WNW,285,2.0,2.0,64,0.00,,,0.34,Wunderground v.1.15,2013-06-04 01:20:00,
2013-06-03 21:30:00,71.1,57.4,29.75,WNW,285,2.0,2.0,62,0.00,,,0.34,Wunderground v.1.15,2013-06-04 01:30:00,
2013-06-03 21:35:00,70.8,56.7,29.75,WSW,252,2.0,5.0,61,0.00,,,0.34,Wunderground v.1.15,2013-06-04 01:35:00,
2013-06-03 21:45:00,70.0,54.5,29.76,NNW,331,2.0,4.0,58,0.00,,,0.34,Wunderground v.1.15,2013-06-04 01:45:00,
2013-06-03 21:50:00,69.7,53.8,29.76,WNW,303,3.0,3.0,57,0.00,,,0.34,Wunderground v.1.15,2013-06-04 01:50:00,
2013-06-03 22:00:00,69.2,53.8,29.76,WNW,282,2.0,2.0,58,0.00,,,0.34,Wunderground v.1.15,2013-06-04 02:00:00,
2013-06-03 22:05:00,69.0,53.1,29.76,WNW,292,1.0,2.0,57,0.00,,,0.34,Wunderground v.1.15,2013-06-04 02:05:00,
2013-06-03 22:15:00,68.5,52.7,29.76,NW,311,2.0,4.0,57,0.00,,,0.34,Wunderground v.1.15,2013-06-04 02:15:00,
2013-06-03 22:20:00,68.3,52.0,29.77,WNW,294,2.0,2.0,56,0.00,,,0.34,Wunderground v.1.15,2013-06-04 02:20:00,
2013-06-03 22:25:00,67.9,52.1,29.77,NW,313,2.0,3.0,57,0.00,,,0.34,Wunderground v.1.15,2013-06-04 02:25:00,
2013-06-03 22:40:00,67.0,51.7,29.77,NW,318,1.0,1.0,58,0.00,,,0.34,Wunderground v.1.15,2013-06-04 02:40:00,
2013-06-03 22:50:00,66.6,51.8,29.77,NW,322,0.0,1.0,59,0.00,,,0.34,Wunderground v.1.15,2013-06-04 02:50:00,
2013-06-03 22:55:00,66.4,51.6,29.77,NNW,339,1.0,1.0,59,0.00,,,0.34,Wunderground v.1.15,2013-06-04 02:55:00,
2013-06-03 23:05:00,66.1,50.9,29.77,WNW,289,1.0,2.0,58,0.00,,,0.34,Wunderground v.1.15,2013-06-04 03:05:00,
2013-06-03 23:15:00,65.7,49.1,29.77,NW,315,1.0,2.0,55,0.00,,,0.34,Wunderground v.1.15,2013-06-04 03:15:00,
2013-06-03 23:20:00,65.4,48.3,29.77,NW,313,1.0,3.0,54,0.00,,,0.34,Wunderground v.1.15,2013-06-04 03:20:00,
2013-06-03 23:30:00,65.1,47.5,29.77,WNW,294,1.0,2.0,53,0.00,,,0.34,Wunderground v.1.15,2013-06-04 03:30:00,
2013-06-03 23:40:00,64.5,47.0,29.77,NW,307,1.0,1.0,53,0.00,,,0.34,Wunderground v.1.15,2013-06-04 03:40:00,
2013-06-03 23:50:00,63.9,46.4,29.78,NW,307,1.0,1.0,53,0.00,,,0.34,Wunderground v.1.15,2013-06-04 03:50:00,
2013-06-03 23:55:00,63.7,45.7,29.77,WNW,292,1.0,2.0,52,0.00,,,0.34,Wunderground v.1.15,2013-06-04 03:55:00,